This demonstration page uses our WeatherBlox Daily Observations layout. Learn more.

Left ArrowRight Arrow

38.80484, -77.04692

Hourly Observations for October 13, 2021

Temp ( °F °C ) Dew Point ( °F °C ) Humidity (%) Winds ( mph kmh ) Pressure ( in mb ) Visibility ( mi km ) Precip ( " mm )
12:19 am 00:19 Cloudy 67 19.4 64 17.8 91 91 Calm 30.07 1018 10 16 0.00 0.00
12:48 am 00:48 Cloudy 66 19 64 18 94 94 Calm 30.06 1018 10 16 0.00 0.00
12:52 am 00:52 Cloudy 67 19.4 63 17.2 87 87 Calm 30.06 1018 10 16 0.00 0.00
1:39 am 01:39 Cloudy 67 19.4 63 17.2 87 87 Calm 30.06 1018 10 16 0.00 0.00
1:52 am 01:52 Cloudy 67 19.4 63 17.2 87 87 Calm 30.06 1018 10 16 0.00 0.00
2:52 am 02:52 Cloudy 67 19.4 63 17.2 87 87 Calm 30.06 1018 10 16 0.00 0.00
3:52 am 03:52 Cloudy 67 19.4 63 17.2 87 87 ESE 3 6 30.04 1017 9 14 0.00 0.00
4:05 am 04:05 Cloudy 67 19.4 63 17.2 87 87 SE 5 7 30.05 1018 8 13 0.00 0.00
4:52 am 04:52 Mostly Cloudy with Mist and Fog 66 18.9 63 17.2 90 90 Calm 30.05 1018 6 10 0.00 0.00
5:52 am 05:52 Cloudy 67 19.4 63 17.2 87 87 S 3 6 30.06 1018 8 13 0.00 0.00
6:52 am 06:52 Cloudy 67 19.4 63 17.2 87 87 Calm 30.06 1018 8 13 0.00 0.00
7:52 am 07:52 Cloudy with Mist and Fog 67 19.4 64 17.8 91 91 SW 3 6 30.07 1018 5 8 0.00 0.00
8:52 am 08:52 Cloudy 68 20 64 17.8 87 87 SSE 3 6 30.09 1019 10 16 0.00 0.00
9:08 am 09:08 Cloudy 68 20 64 17.8 87 87 Calm 30.09 1019 10 16 0.00 0.00
9:22 am 09:22 Mostly Cloudy 69 20.6 64 17.8 84 84 S 3 6 30.09 1019 10 16 0.00 0.00
9:52 am 09:52 Mostly Cloudy 70 21.1 64 17.8 82 82 S 5 7 30.08 1019 10 16 0.00 0.00
10:24 am 10:24 Mostly Cloudy 71 21.7 65 18.3 81 81 SSE 6 9 30.08 1019 10 16 0.00 0.00
10:52 am 10:52 Cloudy 71 21.7 62 16.7 73 73 Calm 30.07 1018 10 16 0.00 0.00
11:52 am 11:52 Cloudy 72 22.2 62 16.7 71 71 SW 3 6 30.06 1018 10 16 0.00 0.00
12:52 pm 12:52 Cloudy 72 22.2 64 17.8 76 76 S 7 11 30.04 1017 10 16 0.00 0.00
1:52 pm 13:52 Cloudy 73 22.8 64 17.8 74 74 S 3 6 30.02 1017 10 16 0.00 0.00
2:52 pm 14:52 Cloudy 74 23.3 64 17.8 71 71 SSW 8 13 30.01 1016 10 16 0.00 0.00
3:52 pm 15:52 Cloudy 73 22.8 64 17.8 74 74 S 7 11 30.01 1016 10 16 0.00 0.00
4:52 pm 16:52 Cloudy 73 22.8 64 17.8 74 74 S 7 11 30.00 1016 10 16 0.00 0.00
5:52 pm 17:52 Mostly Cloudy 73 22.8 65 18.3 76 76 S 6 9 30.00 1016 10 16 0.00 0.00
6:04 pm 18:04 Mostly Cloudy 72 22.2 64 17.8 76 76 S 6 9 30.00 1016 10 16 0.00 0.00
6:52 pm 18:52 Mostly Cloudy 70 21.1 64 17.8 82 82 SSE 5 7 30.00 1016 10 16 0.00 0.00
7:52 pm 19:52 Partly Cloudy 70 21.1 63 17.2 79 79 SSW 3 6 30.01 1016 10 16 0.00 0.00
8:52 pm 20:52 Cloudy 69 20.6 64 17.8 84 84 S 5 7 30.02 1017 10 16 0.00 0.00
9:52 pm 21:52 Mostly Cloudy 68 20 64 17.8 87 87 S 5 7 30.02 1017 10 16 0.00 0.00
10:52 pm 22:52 Partly Cloudy 68 20 64 17.8 87 87 Calm 30.02 1017 10 16 0.00 0.00
11:52 pm 23:52 Mostly Cloudy 67 19.4 63 17.2 87 87 SE 3 6 30.01 1016 10 16 0.00 0.00

Powered by AerisWeather